Location: Limerick
(52.6800°N, 8.6400°W)
Time: 05:56:30
(UTC+00:00)

ISS - All Passes

Search period start: 26 October 2014 00:00
Search period end: 04 November 2014 23:00
Orbit: 412 x 416 km, 51.6° (Epoch: 25 October)

Date Brightness Start Highest point End Pass type
(mag) Time Alt. Az. Time Alt. Az. Time Alt. Az.
26 Oct - 12:32:57 10° SSW 12:35:24 19° SE 12:37:51 10° E daylight
26 Oct - 14:08:21 10° WSW 14:11:38 56° SSE 14:14:56 10° E daylight
26 Oct - 15:44:53 10° W 15:48:14 74° S 15:51:34 10° E daylight
26 Oct - 17:21:36 10° W 17:24:43 37° SSW 17:27:49 10° SE daylight
26 Oct - 19:00:20 10° SW 19:00:41 10° SW 19:01:02 10° SW visible
27 Oct - 11:44:41 10° S 11:46:23 13° SE 11:48:04 10° ESE daylight
27 Oct - 13:19:16 10° SW 13:22:28 44° SSE 13:25:40 10° E daylight
27 Oct - 14:55:39 10° W 14:59:00 76° S 15:02:20 10° E daylight
27 Oct - 16:32:19 10° W 16:35:33 48° SSW 16:38:47 10° SE daylight
27 Oct - 18:09:40 10° WSW 18:11:41 15° SW 18:13:42 10° S visible
28 Oct - 12:30:15 10° SW 12:33:17 33° SSE 12:36:20 10° E daylight
28 Oct - 14:06:24 10° WSW 14:09:44 72° S 14:13:04 10° E daylight
28 Oct - 15:43:01 10° W 15:46:20 60° SSW 15:49:37 10° ESE daylight
28 Oct - 17:19:59 10° W 17:22:36 21° SSW 17:25:13 10° SSE daylight
29 Oct - 11:41:20 10° SSW 11:44:06 24° SSE 11:46:53 10° E daylight
29 Oct - 13:17:08 10° WSW 13:20:26 64° SSE 13:23:45 10° E daylight
29 Oct - 14:53:43 10° W 14:57:02 69° S 15:00:22 10° ESE daylight
29 Oct - 16:30:29 10° W 16:33:27 29° SSW 16:36:23 10° SE daylight
30 Oct - 10:52:39 10° S 10:54:56 17° SE 10:57:14 10° E daylight
30 Oct - 12:27:52 10° WSW 12:31:08 53° SSE 12:34:24 10° E daylight
30 Oct - 14:04:22 10° W 14:07:42 75° S 14:11:02 10° E daylight
30 Oct - 15:41:03 10° W 15:44:12 39° SSW 15:47:20 10° SE daylight
30 Oct - 17:19:05 10° WSW 17:20:12 11° SW 17:21:20 10° SSW daylight
31 Oct - 10:04:27 10° SSE 10:05:47 12° SE 10:07:07 10° ESE daylight
31 Oct - 11:38:39 10° SW 11:41:49 41° SSE 11:44:59 10° E daylight
31 Oct - 13:14:59 10° W 13:18:19 76° S 13:21:39 10° E daylight
31 Oct - 14:51:37 10° W 14:54:53 51° SSW 14:58:07 10° ESE daylight
31 Oct - 16:28:50 10° WSW 16:31:03 17° SW 16:33:15 10° S daylight
01 Nov - 10:49:31 10° SW 10:52:29 30° SSE 10:55:28 10° E daylight
01 Nov - 12:25:35 10° WSW 12:28:54 70° S 12:32:14 10° E daylight
01 Nov - 14:02:11 10° W 14:05:30 63° SSW 14:08:48 10° ESE daylight
01 Nov - 15:39:04 10° W 15:41:48 23° SSW 15:44:31 10° SSE daylight
02 Nov - 10:00:31 10° SSW 10:03:11 22° SSE 10:05:50 10° E daylight
02 Nov - 11:36:10 10° WSW 11:39:28 61° SSE 11:42:46 10° E daylight
02 Nov - 13:12:43 10° W 13:16:03 72° S 13:19:22 10° ESE daylight
02 Nov - 14:49:27 10° W 14:52:28 32° SSW 14:55:29 10° SE daylight
03 Nov - 09:11:47 10° S 09:13:52 16° SE 09:15:58 10° ESE daylight
03 Nov - 10:46:47 10° WSW 10:50:00 49° SSE 10:53:15 10° E daylight
03 Nov - 12:23:13 10° W 12:26:33 76° S 12:29:53 10° E daylight
03 Nov - 13:59:53 10° W 14:03:04 43° SSW 14:06:14 10° SE daylight
03 Nov - 15:37:33 10° WSW 15:39:06 13° SW 15:40:39 10° SSW daylight
04 Nov - 08:23:53 10° SSE 08:24:35 11° SE 08:25:17 10° SE daylight
04 Nov - 09:57:26 10° SW 10:00:33 38° SSE 10:03:40 10° E daylight
04 Nov - 11:33:41 10° W 11:37:01 75° S 11:40:21 10° E daylight
04 Nov - 13:10:19 10° W 13:13:35 55° SSW 13:16:51 10° ESE daylight
04 Nov - 14:47:23 10° W 14:49:47 18° SW 14:52:10 10° S daylight
